Location: Castro Valley
(37.6940°N, 122.0850°W)
Time: 05:02:18
(UTC-08:00)

PANSAT - Visible Passes

Search period start: 22 February 2018 00:00
Search period end: 04 March 2018 00:00
Orbit: 476 x 483 km, 28.5° (Epoch: 22 February)

Date Brightness Start Highest point End Pass type
(mag) Time Alt. Az. Time Alt. Az. Time Alt. Az.
28 Feb 10.0 19:37:50 10° S 19:38:35 12° S 19:38:35 12° S visible
01 Mar 9.8 19:07:57 10° S 19:09:31 12° SSE 19:10:34 11° SSE visible
02 Mar 9.9 18:38:04 10° S 18:39:38 12° SSE 18:41:12 10° SE visible
02 Mar 10.3 20:16:04 10° SW 20:16:38 13° SW 20:16:38 13° SW visible
03 Mar 9.5 19:46:11 10° SW 19:48:32 19° S 19:48:32 19° S visible
